Location: ???? ?????
(30.0052°N, 31.2891°E)
Time: 21:15:13
(UTC+00:00)

Iridium 16 - Pass Details

Date: 03 February 2023
Orbit: 765 x 769 km, 86.4° (Epoch: 01 April)

Event Time Altitude Azimuth Distance (km) Brightness Sun altitude
Rises 02:49:04 0° 176° (S) 3,216 8.8 -25.2°
Reaches altitude 10° 02:51:24 10° 174° (S) 2,294 8.1 -24.7°
Maximum altitude 02:56:31 75° 90° (E) 794 5.6 -23.6°
Drops below altitude 10° 03:01:40 10° 5° (N) 2,309 8.0 -22.5°
Sets 03:04:01 0° 4° (N) 3,239 8.7 -22.0°
